User: anonymous
Location: NJAA Observatory
(40.6819°N, 74.8979°W)
Time: 19:29:08
(UTC-04:00)
Language:

Iridium 84 - Orbit

View from above orbital plane
View from above orbital plane
View from above satellite
View from above satellite

Ground track
Ground track

The orbit data is extracted from the following two-line orbital elements,

1 25530U 98066D   14259.40851575  .00000245  00000-0  80350-4 0  7764
2 25530 086.3949 050.0155 0002134 110.9790 249.1634 14.34218993832982
Epoch (UTC): 16 September 2014 09:48:15
Eccentricity: 0.0002134
inclination: 86.3949°
perigee height: 776 km
apogee height: 779 km
right ascension of ascending node: 50.0155°
argument of perigee: 110.9790°
revolutions per day: 14.34218993
mean anomaly at epoch: 249.1634°
orbit number at epoch: 83298

The dashed part of the orbit path shows where the satellite is in the earth's shadow,  

DLR